HSIFD VTSP-VTSP

Flight info

Callsign HSIFD
Flight time 0h 55m
Altitude 4500
Route VFR
Aircraft C172/L-SFG/C

Departure

Time 2026-05-06 11:28
Airport Phuket International Airport (VTSP)

Arrival

Time 2026-05-06 12:23
Airport Phuket International Airport (VTSP)
Time Latitude Longitude Altitude Speed Heading
2026-05-06 11:22 8.01694 98.40411 26 ft 0 kts 298°
2026-05-06 11:22 8.01722 98.40395 26 ft 11 kts 12°
2026-05-06 11:22 8.01759 98.40454 26 ft 13 kts 114°
2026-05-06 11:23 8.01707 98.40523 26 ft 12 kts 130°
2026-05-06 11:23 8.01681 98.40556 26 ft 4 kts
2026-05-06 11:23 8.01741 98.40484 26 ft 31 kts 308°
2026-05-06 11:23 8.01942 98.40213 26 ft 63 kts 304°
2026-05-06 11:24 8.02255 98.39900 97 ft 63 kts 352°
2026-05-06 11:24 8.02615 98.40076 107 ft 65 kts 41°
2026-05-06 11:24 8.02971 98.40432 150 ft 75 kts 44°
2026-05-06 11:24 8.03267 98.40869 269 ft 79 kts 72°
2026-05-06 11:25 8.03264 98.41454 366 ft 91 kts 101°
2026-05-06 11:25 8.02945 98.42020 482 ft 102 kts 150°
2026-05-06 11:25 8.02274 98.42187 592 ft 83 kts 183°
2026-05-06 11:25 8.01737 98.42026 550 ft 81 kts 212°
2026-05-06 11:26 8.01402 98.41576 439 ft 82 kts 258°
2026-05-06 11:26 8.01408 98.41047 191 ft 74 kts 288°
2026-05-06 11:26 8.01645 98.40620 35 ft 66 kts 306°
2026-05-06 11:26 8.01908 98.40259 27 ft 74 kts 307°
2026-05-06 11:27 8.02311 98.40007 163 ft 71 kts
2026-05-06 11:27 8.02829 98.40094 250 ft 83 kts 13°
2026-05-06 11:27 8.03424 98.40239 379 ft 92 kts 15°
2026-05-06 11:27 8.04059 98.40339 569 ft 93 kts
2026-05-06 11:28 8.04714 98.40390 711 ft 96 kts
2026-05-06 11:28 8.05411 98.40452 812 ft 104 kts
2026-05-06 11:28 8.06147 98.40479 917 ft 108 kts 359°
2026-05-06 11:28 8.06904 98.40412 1016 ft 109 kts 353°
2026-05-06 11:29 8.07657 98.40233 1114 ft 107 kts 345°
2026-05-06 11:29 8.08342 98.40025 1273 ft 103 kts 338°
2026-05-06 11:29 8.08963 98.39672 1413 ft 104 kts 322°
2026-05-06 11:29 8.09447 98.39111 1455 ft 109 kts 312°
2026-05-06 11:30 8.09927 98.38496 1249 ft 114 kts 308°
2026-05-06 11:30 8.10385 98.37831 1091 ft 118 kts 303°
2026-05-06 11:30 8.10850 98.37141 995 ft 118 kts 309°
2026-05-06 11:30 8.11347 98.36497 943 ft 114 kts 310°
2026-05-06 11:31 8.11734 98.35806 797 ft 115 kts 263°
2026-05-06 11:31 8.11612 98.35002 545 ft 118 kts 274°
2026-05-06 11:31 8.11557 98.34240 417 ft 92 kts 264°
2026-05-06 11:31 8.11505 98.33684 295 ft 73 kts 266°
2026-05-06 11:32 8.11463 98.33187 155 ft 70 kts 266°
2026-05-06 11:32 8.11419 98.32717 81 ft 62 kts 266°
2026-05-06 11:32 8.11383 98.32318 68 ft 66 kts 265°
2026-05-06 11:32 8.11331 98.31751 58 ft 95 kts 266°
2026-05-06 11:33 8.11259 98.31036 128 ft 105 kts 264°
2026-05-06 11:33 8.11205 98.30312 328 ft 101 kts 268°
2026-05-06 11:33 8.11590 98.29811 426 ft 103 kts
2026-05-06 11:33 8.12047 98.30263 614 ft 101 kts 79°
2026-05-06 11:34 8.11891 98.30957 613 ft 113 kts 144°
2026-05-06 11:34 8.11102 98.31079 638 ft 116 kts 178°
2026-05-06 11:34 8.10308 98.31102 784 ft 112 kts 179°
2026-05-06 11:34 8.09564 98.31221 938 ft 107 kts 153°
2026-05-06 11:35 8.08971 98.31641 1118 ft 103 kts 142°
2026-05-06 11:35 8.08389 98.32061 1248 ft 102 kts 146°
2026-05-06 11:35 8.07760 98.32475 1143 ft 113 kts 148°
2026-05-06 11:35 8.07071 98.32881 1112 ft 113 kts 148°
2026-05-06 11:36 8.06534 98.33440 1100 ft 113 kts 115°
2026-05-06 11:36 8.06014 98.33986 979 ft 119 kts 178°
2026-05-06 11:36 8.05201 98.33795 795 ft 118 kts 199°
2026-05-06 11:36 8.04446 98.33586 758 ft 110 kts 193°
2026-05-06 11:37 8.03680 98.33441 626 ft 110 kts 177°
2026-05-06 11:37 8.03135 98.33845 566 ft 100 kts 110°
2026-05-06 11:37 8.02900 98.34472 773 ft 87 kts 110°
2026-05-06 11:37 8.02668 98.35087 884 ft 95 kts 105°
2026-05-06 11:38 8.02490 98.35730 1075 ft 94 kts 105°
2026-05-06 11:38 8.02336 98.36368 1253 ft 95 kts 96°
2026-05-06 11:38 8.02253 98.37017 1298 ft 86 kts 102°
2026-05-06 11:38 8.02224 98.37652 1035 ft 98 kts 78°
2026-05-06 11:39 8.02304 98.38245 840 ft 75 kts 83°
2026-05-06 11:39 8.02347 98.38762 568 ft 73 kts 89°
2026-05-06 11:39 8.02304 98.39264 311 ft 69 kts 100°
2026-05-06 11:39 8.02179 98.39724 140 ft 69 kts 108°
2026-05-06 11:40 8.01984 98.40136 26 ft 55 kts 122°
2026-05-06 11:40 8.01704 98.40520 49 ft 79 kts 127°
2026-05-06 11:40 8.01546 98.41046 233 ft 78 kts 97°
2026-05-06 11:40 8.01422 98.41618 319 ft 90 kts 101°
2026-05-06 11:41 8.01485 98.42199 363 ft 95 kts 354°
2026-05-06 11:41 8.01579 98.41670 323 ft 73 kts 274°
2026-05-06 11:41 8.01536 98.41170 250 ft 75 kts 266°
2026-05-06 11:41 8.01619 98.40670 44 ft 69 kts 301°
2026-05-06 11:42 8.01859 98.40322 26 ft 69 kts 308°
2026-05-06 11:42 8.02207 98.39961 145 ft 74 kts 348°
2026-05-06 11:42 8.02762 98.39989 238 ft 85 kts 11°
2026-05-06 11:42 8.03289 98.40244 386 ft 88 kts 54°
2026-05-06 11:43 8.03581 98.40808 511 ft 94 kts 65°
2026-05-06 11:43 8.03877 98.41412 636 ft 97 kts 60°
2026-05-06 11:43 8.04053 98.42077 748 ft 99 kts 75°
2026-05-06 11:44 8.04376 98.43436 989 ft 100 kts 78°
2026-05-06 11:44 8.04473 98.44156 1077 ft 106 kts 82°
2026-05-06 11:44 8.04564 98.44896 1188 ft 107 kts 83°
2026-05-06 11:44 8.04652 98.45646 1304 ft 108 kts 84°
2026-05-06 11:45 8.04730 98.46399 1417 ft 108 kts 83°
2026-05-06 11:45 8.04811 98.47167 1469 ft 114 kts 84°
2026-05-06 11:45 8.04888 98.47985 1471 ft 119 kts 85°
2026-05-06 11:45 8.04952 98.48826 1472 ft 121 kts 85°
2026-05-06 11:46 8.05018 98.49671 1474 ft 121 kts 85°
2026-05-06 11:46 8.05087 98.50504 1465 ft 121 kts 84°
2026-05-06 11:46 8.05158 98.51349 1465 ft 120 kts 85°
2026-05-06 11:46 8.05239 98.52187 1471 ft 120 kts 84°
2026-05-06 11:47 8.05275 98.52538 1470 ft 120 kts 84°
2026-05-06 11:47 8.05350 98.53280 1470 ft 120 kts 83°
2026-05-06 11:47 8.05436 98.54118 1470 ft 120 kts 84°
2026-05-06 11:47 8.05522 98.54954 1466 ft 119 kts 84°
2026-05-06 11:48 8.05606 98.55789 1466 ft 119 kts 83°
2026-05-06 11:48 8.05689 98.56621 1470 ft 120 kts 83°
2026-05-06 11:48 8.05774 98.57459 1474 ft 120 kts 84°
2026-05-06 11:48 8.05869 98.58293 1476 ft 120 kts 82°
2026-05-06 11:49 8.05983 98.59132 1475 ft 121 kts 82°
2026-05-06 11:49 8.06095 98.59960 1470 ft 120 kts 82°
2026-05-06 11:49 8.06210 98.60798 1469 ft 120 kts 82°
2026-05-06 11:49 8.06324 98.61634 1467 ft 120 kts 82°
2026-05-06 11:50 8.06436 98.62464 1473 ft 119 kts 82°
2026-05-06 11:50 8.06548 98.63292 1474 ft 119 kts 82°
2026-05-06 11:50 8.06658 98.64119 1469 ft 120 kts 82°
2026-05-06 11:50 8.06771 98.64948 1470 ft 119 kts 82°
2026-05-06 11:51 8.06887 98.65777 1466 ft 120 kts 82°
2026-05-06 11:51 8.07004 98.66610 1469 ft 120 kts 82°
2026-05-06 11:51 8.07117 98.67446 1470 ft 121 kts 83°
2026-05-06 11:51 8.07216 98.68299 1478 ft 123 kts 84°
2026-05-06 11:52 8.07302 98.69157 1471 ft 123 kts 85°
2026-05-06 11:52 8.07376 98.70014 1485 ft 123 kts 85°
2026-05-06 11:52 8.07450 98.70871 1484 ft 123 kts 85°
2026-05-06 11:52 8.07530 98.71729 1484 ft 123 kts 84°
2026-05-06 11:53 8.07479 98.72589 1486 ft 123 kts 96°
2026-05-06 11:53 8.07403 98.73448 1490 ft 123 kts 95°
2026-05-06 11:53 8.07327 98.74306 1485 ft 123 kts 95°
2026-05-06 11:53 8.07251 98.75168 1489 ft 123 kts 95°
2026-05-06 11:54 8.07176 98.76016 1487 ft 123 kts 94°
2026-05-06 11:54 8.07167 98.76873 1488 ft 122 kts 89°
2026-05-06 11:54 8.07190 98.77734 1488 ft 123 kts 88°
2026-05-06 11:54 8.07218 98.78595 1487 ft 123 kts 88°
2026-05-06 11:55 8.07245 98.79459 1488 ft 123 kts 88°
2026-05-06 11:55 8.07287 98.80322 1486 ft 123 kts 86°
2026-05-06 11:55 8.07353 98.81185 1482 ft 124 kts 83°
2026-05-06 11:55 8.07421 98.81755 1485 ft 123 kts 83°
2026-05-06 11:56 8.07525 98.82617 1484 ft 124 kts 83°
2026-05-06 11:56 8.07683 98.83771 1482 ft 124 kts 81°
2026-05-06 11:56 8.07777 98.84337 1486 ft 123 kts 81°
2026-05-06 11:56 8.07866 98.85196 1477 ft 123 kts 86°
2026-05-06 11:57 8.07861 98.86063 1485 ft 124 kts 91°
2026-05-06 11:57 8.07872 98.86930 1494 ft 124 kts 91°
2026-05-06 11:57 8.07854 98.87797 1494 ft 124 kts 91°
2026-05-06 11:57 8.07876 98.88665 1492 ft 124 kts 86°
2026-05-06 11:58 8.07919 98.89536 1466 ft 126 kts 86°
2026-05-06 11:58 8.07953 98.90437 1385 ft 129 kts 92°
2026-05-06 11:58 8.07836 98.91330 1372 ft 127 kts 97°
2026-05-06 11:58 8.07740 98.92216 1320 ft 127 kts 97°
2026-05-06 11:59 8.07669 98.93099 1299 ft 126 kts 93°
2026-05-06 11:59 8.07633 98.93976 1277 ft 125 kts 92°
2026-05-06 11:59 8.07577 98.94859 1191 ft 127 kts 95°
2026-05-06 11:59 8.07574 98.95737 1163 ft 124 kts 88°
2026-05-06 12:00 8.07560 98.96593 1112 ft 120 kts 96°
2026-05-06 12:00 8.07346 98.97388 1130 ft 116 kts 107°
2026-05-06 12:00 8.07118 98.98159 1163 ft 113 kts 105°
2026-05-06 12:00 8.06918 98.98916 1181 ft 113 kts 106°
2026-05-06 12:01 8.06682 98.99689 1118 ft 115 kts 105°
2026-05-06 12:01 8.06591 99.00479 962 ft 111 kts 76°
2026-05-06 12:01 8.07087 99.01002 732 ft 107 kts 355°
2026-05-06 12:01 8.07556 99.00556 514 ft 79 kts 320°
2026-05-06 12:02 8.07953 99.00228 297 ft 70 kts 321°
2026-05-06 12:02 8.08318 98.99925 183 ft 67 kts 322°
2026-05-06 12:02 8.08676 98.99631 113 ft 65 kts 321°
2026-05-06 12:02 8.08994 98.99370 94 ft 53 kts 320°
2026-05-06 12:03 8.09198 98.99202 94 ft 9 kts 322°
2026-05-06 12:03 8.09238 98.99169 93 ft 21 kts 320°
2026-05-06 12:03 8.09472 98.98977 95 ft 62 kts 321°
2026-05-06 12:03 8.09851 98.98653 171 ft 74 kts 320°
2026-05-06 12:04 8.10161 98.98246 304 ft 76 kts 283°
2026-05-06 12:04 8.10084 98.97725 440 ft 77 kts 251°
2026-05-06 12:04 8.09880 98.97204 529 ft 87 kts 251°
2026-05-06 12:04 8.09666 98.96598 661 ft 93 kts 252°
2026-05-06 12:05 8.09420 98.95989 824 ft 94 kts 249°
2026-05-06 12:05 8.09213 98.95355 981 ft 96 kts 255°
2026-05-06 12:05 8.09025 98.94706 1145 ft 97 kts 256°
2026-05-06 12:05 8.08838 98.94054 1302 ft 97 kts 256°
2026-05-06 12:06 8.08640 98.93353 1309 ft 111 kts 256°
2026-05-06 12:06 8.08419 98.92565 1294 ft 120 kts 256°
2026-05-06 12:06 8.08189 98.91738 1294 ft 124 kts 256°
2026-05-06 12:06 8.07936 98.90902 1295 ft 125 kts 251°
2026-05-06 12:07 8.07618 98.90079 1296 ft 126 kts 249°
2026-05-06 12:07 8.07309 98.89246 1297 ft 127 kts 250°
2026-05-06 12:07 8.07004 98.88424 1293 ft 123 kts 254°
2026-05-06 12:07 8.06753 98.87616 1290 ft 122 kts 253°
2026-05-06 12:08 8.06504 98.86807 1291 ft 120 kts 254°
2026-05-06 12:08 8.06254 98.86006 1291 ft 119 kts 254°
2026-05-06 12:08 8.06007 98.85208 1290 ft 119 kts 254°
2026-05-06 12:08 8.05763 98.84408 1290 ft 119 kts 253°
2026-05-06 12:09 8.05520 98.83605 1291 ft 120 kts 253°
2026-05-06 12:09 8.05276 98.82796 1293 ft 121 kts 254°
2026-05-06 12:09 8.05030 98.81988 1291 ft 121 kts 253°
2026-05-06 12:09 8.04784 98.81176 1292 ft 121 kts 254°
2026-05-06 12:10 8.04539 98.80364 1291 ft 121 kts 254°
2026-05-06 12:10 8.04294 98.79552 1290 ft 121 kts 254°
2026-05-06 12:10 8.04050 98.78744 1290 ft 120 kts 254°
2026-05-06 12:10 8.03806 98.77938 1289 ft 120 kts 254°
2026-05-06 12:11 8.03562 98.77131 1290 ft 120 kts 254°
2026-05-06 12:11 8.03330 98.76321 1289 ft 120 kts 256°
2026-05-06 12:11 8.03115 98.75511 1302 ft 119 kts 256°
2026-05-06 12:11 8.02905 98.74713 1307 ft 120 kts 256°
2026-05-06 12:12 8.02691 98.73900 1310 ft 120 kts 256°
2026-05-06 12:12 8.02474 98.73081 1310 ft 121 kts 256°
2026-05-06 12:12 8.02258 98.72262 1315 ft 121 kts 256°
2026-05-06 12:12 8.02042 98.71442 1319 ft 121 kts 256°
2026-05-06 12:13 8.01834 98.70620 1322 ft 121 kts 258°
2026-05-06 12:13 8.01646 98.69793 1326 ft 121 kts 258°
2026-05-06 12:13 8.01458 98.68968 1326 ft 121 kts 258°
2026-05-06 12:13 8.01277 98.68141 1326 ft 121 kts 259°
2026-05-06 12:14 8.01115 98.67309 1325 ft 121 kts 259°
2026-05-06 12:14 8.00955 98.66478 1324 ft 121 kts 259°
2026-05-06 12:14 8.00796 98.65645 1323 ft 121 kts 259°
2026-05-06 12:14 8.00638 98.64815 1320 ft 121 kts 259°
2026-05-06 12:15 8.00483 98.63995 1322 ft 121 kts 259°
2026-05-06 12:15 8.00326 98.63162 1324 ft 121 kts 259°
2026-05-06 12:15 8.00169 98.62329 1327 ft 121 kts 260°
2026-05-06 12:15 8.00009 98.61497 1329 ft 121 kts 260°
2026-05-06 12:16 7.99859 98.60661 1334 ft 121 kts 263°
2026-05-06 12:16 7.99771 98.59816 1344 ft 121 kts 264°
2026-05-06 12:16 7.99675 98.58974 1328 ft 121 kts 263°
2026-05-06 12:16 7.99573 98.58129 1328 ft 121 kts 263°
2026-05-06 12:17 7.99460 98.57285 1330 ft 121 kts 263°
2026-05-06 12:17 7.99347 98.56442 1336 ft 121 kts 263°
2026-05-06 12:17 7.99235 98.55598 1341 ft 121 kts 263°
2026-05-06 12:17 7.99073 98.54761 1345 ft 122 kts 259°
2026-05-06 12:18 7.98903 98.53926 1352 ft 121 kts 258°
2026-05-06 12:18 7.98732 98.53092 1357 ft 121 kts 259°
2026-05-06 12:18 7.98563 98.52257 1362 ft 122 kts 260°
2026-05-06 12:18 7.98434 98.51410 1366 ft 123 kts 263°
2026-05-06 12:19 7.98317 98.50557 1366 ft 122 kts 263°
2026-05-06 12:19 7.98154 98.49716 1362 ft 122 kts 253°
2026-05-06 12:19 7.97912 98.48892 1363 ft 122 kts 254°
2026-05-06 12:19 7.97684 98.48103 1322 ft 106 kts 255°
2026-05-06 12:20 7.97525 98.47430 1203 ft 96 kts 263°
2026-05-06 12:20 7.97448 98.46776 1069 ft 92 kts 272°
2026-05-06 12:20 7.97722 98.46216 926 ft 90 kts 305°
2026-05-06 12:20 7.98072 98.45655 839 ft 99 kts 307°
2026-05-06 12:21 7.98462 98.45085 830 ft 100 kts 307°
2026-05-06 12:21 7.98852 98.44528 824 ft 96 kts 307°
2026-05-06 12:21 7.99243 98.43976 829 ft 98 kts 308°
2026-05-06 12:21 7.99618 98.43459 802 ft 83 kts 308°
2026-05-06 12:22 7.99935 98.43005 784 ft 77 kts 310°
2026-05-06 12:22 8.00264 98.42534 634 ft 84 kts 304°
2026-05-06 12:22 8.00568 98.42088 482 ft 75 kts 307°
2026-05-06 12:22 8.00870 98.41669 347 ft 73 kts 311°
2026-05-06 12:23 8.01175 98.41257 237 ft 73 kts 310°
2026-05-06 12:23 8.01469 98.40855 120 ft 69 kts 307°
2026-05-06 12:23 8.01738 98.40488 26 ft 58 kts 308°
2026-05-06 12:23 8.01920 98.40241 26 ft 32 kts 303°
2026-05-06 12:24 8.01992 98.40107 26 ft 4 kts 315°
2026-05-06 12:24 8.01969 98.40164 26 ft 28 kts 122°
2026-05-06 12:24 8.01778 98.40435 26 ft 64 kts 124°
2026-05-06 12:24 8.01499 98.40812 136 ft 68 kts 122°
2026-05-06 12:25 8.01502 98.41279 211 ft 66 kts 119°
2026-05-06 12:25 8.01324 98.41061 156 ft 70 kts 308°
2026-05-06 12:25 8.01623 98.40650 66 ft 71 kts 306°
2026-05-06 12:25 8.01857 98.40328 26 ft 42 kts 308°
2026-05-06 12:26 8.01984 98.40158 26 ft 18 kts 301°
2026-05-06 12:26 8.01955 98.40180 26 ft 11 kts 116°
2026-05-06 12:26 8.01930 98.40232 26 ft 7 kts 123°
2026-05-06 12:26 8.01873 98.40311 26 ft 21 kts 126°
2026-05-06 12:27 8.01769 98.40400 26 ft 15 kts 175°
2026-05-06 12:27 8.01714 98.40420 26 ft 3 kts 187°
2026-05-06 12:27 8.01712 98.40418 26 ft 0 kts 232°
2026-05-06 12:27 8.01711 98.40414 26 ft 0 kts 273°